[[{"header":{"parameterUnit":"m.s-1","parameterCategory":1,"la1":30.2991,"la2":30.254,"lo1":-89.0895,"lo2":-89.0444,"dy":0.0017,"dx":0.0017,"nx":28,"ny":28,"refTime":"2024-04-16T09:00:00:Z","depth":0,"parameterNumber":2,"parameterNumberName":"U-component_of_WINDS"},"data":[0,0,0,0,0,0,0,0,0,0,0,0,0,0,0,0,0,0,0,0,0,0,0,0,0,0,0,0,0,0,0,0,0,0,0,0,0,0,0,0,0,0,0,0,0,0,0,0,0,0,0,0,0,0,0,0,0,0,-5.155,-5.1551,0,-5.1688,-5.169,-5.1692,-5.171,-5.1709,-5.1707,-5.1706,-5.1845,-5.185,-5.1855,0,0,0,0,0,0,0,0,0,0,0,0,0,-5.13,-5.1304,-5.1549,-5.1551,-5.1553,-5.1688,-5.169,-5.1692,-5.171,-5.1709,-5.1707,-5.1706,-5.1843,-5.1849,-5.1855,0,0,0,0,0,0,0,0,0,0,0,0,0,-5.142,-5.1306,-5.1549,-5.1578,-5.1582,-5.1688,-5.169,-5.1692,-5.1711,-5.1709,-5.1707,-5.1705,-5.1841,-5.1849,-5.1856,-5.1941,0,0,-5.1878,-5.1882,0,0,0,0,0,0,0,0,-5.1413,-5.1429,-5.1572,-5.1577,-5.1581,-5.168,-5.1653,-5.1776,-5.1711,-5.1662,-5.1706,-5.1704,-5.1791,-5.1803,-5.1833,-5.1947,-5.1953,-5.1879,-5.1884,-5.1887,-5.1889,0,0,0,0,0,0,0,-5.1405,-5.1424,-5.1604,-5.1574,-5.158,-5.1585,-5.16,-5.1676,-5.1736,-5.1666,-5.1668,-5.1684,-5.1793,-5.1826,-5.1836,-5.1955,-5.1879,-5.1885,-5.189,-5.1893,-5.2147,-5.215,0,0,0,0,0,0,-5.1392,-5.1416,-5.16,-5.1609,-5.1491,-5.1591,-5.1607,-5.165,-5.1735,-5.1746,-5.1686,-5.1684,-5.1814,-5.1828,-5.1841,-5.1946,-5.1887,-5.1894,-5.1898,-5.2145,-5.2148,-5.215,0,0,0,0,0,0,-5.1386,-5.1408,-5.1594,-5.1513,-5.1537,-5.1597,-5.1645,-5.1654,-5.1686,-5.175,-5.176,-5.1708,-5.1813,-5.1831,-5.1916,-5.1951,-5.1897,-5.1904,-5.2142,-5.2146,-5.2149,-5.2155,0,0,0,0,0,0,-5.1379,-5.1406,-5.1438,-5.1514,-5.1542,-5.1667,-5.1647,-5.1658,-5.1699,-5.1699,-5.1773,-5.1784,-5.1813,-5.1905,-5.1924,-5.196,-5.1909,-5.2139,-5.2144,-5.2148,-5.2152,-5.2159,-5.2164,0,0,0,0,0,-5.137,-5.1433,-5.144,-5.1462,-5.1584,-5.1669,-5.1685,-5.1718,-5.1702,-5.1735,-5.1777,-5.1781,-5.1945,-5.1914,-5.1935,-5.1974,-5.2137,-5.2143,-5.2148,-5.215,-5.2157,-5.2164,0,0,0,0,0,0,-5.1358,-5.1444,-5.1451,-5.1542,-5.1598,-5.1672,-5.1714,-5.1725,-5.1786,-5.1783,-5.1821,-5.1838,-5.1921,-5.1957,-5.192,-5.2061,-5.204,-5.2049,-5.2034,-5.2042,-5.2048,-5.2036,-5.1915,0,0,0,0,0,-5.1367,-5.1429,-5.1501,-5.1573,-5.1601,-5.1653,-5.1692,-5.1713,-5.1772,-5.1796,-5.1843,-5.19,-5.1965,-5.2006,-5.2069,-5.216,-5.2175,-5.2197,-5.2203,-5.2208,-5.2214,-5.2265,-5.2275,-5.2168,-5.2168,-5.2168,0,0,-5.1383,-5.1438,-5.1475,-5.1572,-5.1618,-5.1682,-5.1673,-5.174,-5.1788,-5.1806,-5.1889,-5.1927,-5.1993,-5.2081,-5.2123,-5.2113,-5.2248,-5.2214,-5.2217,-5.2222,-5.2271,-5.2281,-5.229,-5.2171,-5.2171,-5.217,0,0,-5.1446,-5.1494,-5.156,-5.1608,-5.1679,-5.1713,-5.173,-5.1803,-5.1829,-5.1914,-5.1929,-5.1987,-5.2097,-5.2144,-5.2182,-5.2268,-5.2274,-5.2288,-5.2316,-5.2366,-5.2374,-5.2382,-5.241,-5.2421,-5.2295,-5.2295,-5.2295,0,-5.1457,-5.1554,-5.1592,-5.166,-5.1702,-5.1725,-5.1792,-5.1836,-5.1923,-5.1952,-5.1942,-5.2082,-5.2128,-5.2228,-5.2249,-5.228,-5.2299,-5.2276,-5.237,-5.2378,-5.2386,-5.2414,-5.2425,-5.2296,-5.2296,-5.2296,-5.2295,0,-5.1563,-5.1631,-5.1676,-5.1761,-5.181,-5.1876,-5.1925,-5.1969,-5.1988,-5.2024,-5.2111,-5.2169,-5.2244,-5.227,-5.2288,-5.2373,-5.2365,-5.2362,-5.234,-5.2396,-5.2423,-5.2434,-5.2297,-5.2297,-5.2296,-5.2296,0,0,-5.1617,-5.1726,-5.1742,-5.1781,-5.1864,-5.1916,-5.1986,-5.2061,-5.2098,-5.2159,-5.2217,-5.2312,-5.2311,-5.2354,-5.2379,-5.2423,-5.2485,-5.2414,-5.2416,-5.2423,-5.2582,-5.2581,-5.2593,-5.2493,-5.2495,-5.2497,-5.2575,0,-5.1687,-5.181,-5.1849,-5.1951,-5.2014,-5.2039,-5.21,-5.2157,-5.2194,-5.2252,-5.2293,-5.2359,-5.2353,-5.238,-5.2425,-5.2468,-5.2517,-5.2464,-5.2545,-5.2547,-5.2523,-5.2607,-5.2606,-5.2677,-5.2586,-5.2588,-5.2589,0,-5.1783,-5.1848,-5.1957,-5.2034,-5.2061,-5.2115,-5.2188,-5.2244,-5.231,-5.2335,-5.2386,-5.2407,-5.2481,-5.2459,-5.256,-5.2523,-5.2559,-5.2587,-5.259,-5.2595,-5.2568,-5.2612,-5.2701,-5.271,-5.2607,-5.2605,-5.2604,0,-5.1808,-5.1923,-5.2004,-5.2037,-5.2129,-5.2166,-5.2206,-5.2271,-5.2314,-5.2379,-5.2407,-5.2479,-5.2518,-5.2573,-5.2614,-5.2595,-5.2712,-5.2693,-5.2732,-5.2731,-5.2752,-5.2749,-5.2844,-5.2781,-5.2781,-5.2781,-5.2781,0,-5.188,-5.1945,-5.2016,-5.2065,-5.214,-5.2185,-5.2258,-5.2299,-5.2357,-5.2415,-5.2442,-5.2496,-5.2548,-5.2609,-5.2642,-5.272,-5.2738,-5.2759,-5.2766,-5.2754,-5.2751,-5.2775,-5.277,-5.2784,-5.2783,-5.2782,-5.2782,0,-5.1918,-5.1969,-5.2058,-5.2139,-5.2161,-5.2213,-5.2282,-5.2331,-5.2371,-5.2444,-5.2463,-5.2526,-5.2599,-5.2647,-5.274,-5.2762,-5.2847,-5.2855,-5.2824,-5.2827,-5.2863,-5.2858,-5.2974,-5.2991,-5.2919,-5.292,-5.292,0,-5.1959,-5.201,-5.2098,-5.2139,-5.2179,-5.2245,-5.2291,-5.2339,-5.2385,-5.2467,-5.2505,-5.2581,-5.2643,-5.2759,-5.2813,-5.2884,-5.2892,-5.2928,-5.2902,-5.289,-5.289,-5.2885,-5.289,-5.293,-5.2931,-5.2932,-5.2932,0,-5.2025,-5.2048,-5.2113,-5.2187,-5.2241,-5.2302,-5.2362,-5.2395,-5.2453,-5.2504,-5.258,-5.2629,-5.2726,-5.28,-5.2877,-5.2918,-5.2935,-5.2941,-5.2953,-5.2939,-5.2919,-5.2928,-5.2832,-5.2936,-5.2936,-5.2936,-5.2935,-5.2935,-5.2064,-5.2111,-5.218,-5.2252,-5.2304,-5.2361,-5.2411,-5.2459,-5.2523,-5.2606,-5.2631,-5.271,-5.2778,-5.2884,-5.2927,-5.2989,-5.2985,-5.3003,-5.3007,-5.301,-5.3009,-5.2913,-5.3004,-5.3004,-5.3004,-5.3004,-5.3004,0,-5.2129,-5.2176,-5.2242,-5.2327,-5.2384,-5.2398,-5.2467,-5.2513,-5.2583,-5.2645,-5.2707,-5.2795,-5.2869,-5.293,-5.3005,-5.3044,-5.3053,-5.3062,-5.3057,-5.3066,-5.301,-5.299,-5.3053,-5.3053,-5.3053,-5.3053,-5.3053,-5.3053,-5.2169,-5.2249,-5.2282,-5.2388,-5.2435,-5.2514,-5.2552,-5.2605,-5.2655,-5.2752,-5.2814,-5.2854,-5.2917,-5.2998,-5.3066,-5.3082,-5.3107,-5.3114,-5.3131,-5.3076,-5.307,-5.3065,-5.3047,-5.312,-5.312,-5.3182,-5.3183,-5.3183]},{"header":{"parameterUnit":"m.s-1","parameterCategory":1,"la1":30.2991,"la2":30.254,"lo1":-89.0895,"lo2":-89.0444,"dy":0.0017,"dx":0.0017,"nx":28,"ny":28,"refTime":"2024-04-16T09:00:00:Z","depth":0,"parameterNumber":3,"parameterNumberName":"V-component_of_WINDS"},"data":[0,0,0,0,0,0,0,0,0,0,0,0,0,0,0,0,0,0,0,0,0,0,0,0,0,0,0,0,0,0,0,0,0,0,0,0,0,0,0,0,0,0,0,0,0,0,0,0,0,0,0,0,0,0,0,0,0,0,3.7013,3.7014,0,3.7078,3.7079,3.708,3.7158,3.7159,3.716,3.7161,3.7225,3.7225,3.7226,0,0,0,0,0,0,0,0,0,0,0,0,0,3.6955,3.6955,3.7013,3.7014,3.7015,3.7078,3.7079,3.708,3.7157,3.7159,3.716,3.7162,3.7224,3.7225,3.7226,0,0,0,0,0,0,0,0,0,0,0,0,0,3.6996,3.6956,3.7013,3.7061,3.7066,3.7078,3.7079,3.708,3.7157,3.7159,3.7161,3.7163,3.7224,3.7225,3.7226,3.7194,0,0,3.7228,3.7229,0,0,0,0,0,0,0,0,3.6993,3.6998,3.7053,3.7058,3.7064,3.7112,3.7082,3.7118,3.7157,3.7122,3.7161,3.7163,3.7185,3.7189,3.7198,3.7197,3.72,3.7228,3.7229,3.7229,3.7229,0,0,0,0,0,0,0,3.699,3.6996,3.7039,3.7054,3.706,3.7079,3.7087,3.7089,3.7143,3.7126,3.7131,3.7138,3.7188,3.7197,3.72,3.7201,3.7228,3.7229,3.723,3.723,3.718,3.7179,0,0,0,0,0,0,3.6981,3.6993,3.7037,3.7041,3.7032,3.7079,3.7088,3.7094,3.7143,3.7152,3.7137,3.7142,3.7194,3.7199,3.7202,3.7171,3.7229,3.723,3.723,3.7182,3.718,3.7178,0,0,0,0,0,0,3.6979,3.6984,3.7034,3.7018,3.7026,3.7078,3.7085,3.7095,3.7103,3.7151,3.7161,3.7135,3.7196,3.7201,3.7197,3.7174,3.723,3.7231,3.7184,3.7182,3.7179,3.7105,0,0,0,0,0,0,3.6977,3.6983,3.6972,3.7018,3.7027,3.7028,3.7083,3.7095,3.7105,3.7112,3.7153,3.7161,3.7198,3.7195,3.7197,3.7176,3.7232,3.7187,3.7183,3.718,3.711,3.71,3.7092,0,0,0,0,0,3.6975,3.6947,3.6971,3.6976,3.7014,3.7026,3.7031,3.7075,3.7102,3.7092,3.7123,3.716,3.7175,3.7194,3.7197,3.7175,3.7188,3.7184,3.718,3.7114,3.7102,3.7092,0,0,0,0,0,0,3.6896,3.6954,3.6981,3.6967,3.6991,3.7039,3.7027,3.7061,3.7077,3.7083,3.7135,3.7144,3.7133,3.7154,3.7173,3.7149,3.7187,3.7184,3.7136,3.7125,3.7116,3.7112,3.7232,0,0,0,0,0,3.6877,3.6883,3.6933,3.6916,3.6927,3.6975,3.6981,3.7013,3.704,3.705,3.7081,3.7105,3.7116,3.7121,3.7134,3.7113,3.7124,3.71,3.7091,3.7084,3.708,3.7073,3.7063,3.7165,3.7165,3.7165,0,0,3.6838,3.687,3.687,3.6901,3.6924,3.6928,3.6983,3.6985,3.6989,3.705,3.7049,3.7072,3.7102,3.709,3.7086,3.7107,3.7055,3.7078,3.7072,3.7073,3.7068,3.7058,3.705,3.7162,3.7163,3.7163,0,0,3.6769,3.6794,3.6784,3.6806,3.684,3.6872,3.6869,3.6913,3.6931,3.6931,3.6978,3.6983,3.6999,3.702,3.7032,3.6973,3.7008,3.6975,3.6929,3.6921,3.6913,3.6906,3.6887,3.6879,3.6971,3.6971,3.6971,0,3.6716,3.6726,3.6774,3.6774,3.6787,3.6844,3.6834,3.6853,3.6888,3.6895,3.6918,3.6942,3.6966,3.6961,3.6946,3.6954,3.6953,3.6971,3.691,3.6904,3.6898,3.688,3.6873,3.6967,3.6967,3.6968,3.6968,0,3.666,3.6666,3.6653,3.6688,3.6699,3.6694,3.6741,3.6747,3.6778,3.6807,3.6807,3.6838,3.6859,3.6859,3.6889,3.6859,3.6871,3.6901,3.6941,3.6884,3.6868,3.6861,3.6961,3.6963,3.6964,3.6965,0,0,3.6543,3.6606,3.6601,3.6618,3.666,3.6666,3.6663,3.6685,3.6689,3.6712,3.6712,3.6726,3.6755,3.6769,3.6801,3.6794,3.6748,3.6826,3.6827,3.6811,3.6718,3.6696,3.6687,3.6771,3.6769,3.6768,3.6716,0,3.6483,3.6485,3.6529,3.6517,3.6524,3.6579,3.6578,3.6603,3.6631,3.6641,3.6671,3.6681,3.6718,3.6727,3.6722,3.6754,3.673,3.6758,3.6772,3.6772,3.6764,3.6679,3.6655,3.6604,3.671,3.6709,3.6708,0,3.6414,3.6435,3.6425,3.6469,3.6474,3.6472,3.6496,3.6504,3.6535,3.6556,3.6572,3.6609,3.6611,3.6648,3.665,3.6669,3.6677,3.6693,3.6693,3.6696,3.6737,3.6682,3.6589,3.6582,3.6699,3.6699,3.67,0,3.6332,3.6357,3.6355,3.6368,3.642,3.6417,3.6438,3.6471,3.6481,3.6502,3.651,3.653,3.6541,3.6555,3.6597,3.662,3.6595,3.6636,3.6613,3.6612,3.6606,3.6606,3.6515,3.6609,3.6609,3.6609,3.6609,0,3.6262,3.6254,3.632,3.6318,3.6312,3.6362,3.6353,3.638,3.6408,3.6413,3.6461,3.6464,3.6519,3.6528,3.656,3.6559,3.6563,3.658,3.6589,3.6577,3.6575,3.6583,3.6588,3.6607,3.6607,3.6608,3.6608,0,3.617,3.6213,3.6215,3.6264,3.6276,3.6269,3.6311,3.6312,3.6343,3.6349,3.6353,3.6402,3.6416,3.6459,3.6482,3.6504,3.6494,3.6509,3.6484,3.649,3.6466,3.6468,3.6378,3.6369,3.6467,3.6466,3.6465,0,3.6123,3.6119,3.6168,3.6176,3.6195,3.6206,3.6218,3.6267,3.6277,3.6313,3.6309,3.6327,3.6345,3.6364,3.6401,3.642,3.6438,3.6405,3.6441,3.643,3.644,3.644,3.6441,3.6397,3.6396,3.6395,3.6394,0,3.6036,3.6058,3.6074,3.6098,3.6111,3.6131,3.6155,3.6158,3.6213,3.6222,3.6238,3.6251,3.6277,3.6295,3.632,3.6341,3.6377,3.6383,3.6379,3.6367,3.6353,3.6362,3.6464,3.6385,3.6386,3.6386,3.6387,3.6387,3.5967,3.5966,3.6001,3.6018,3.6041,3.6062,3.6066,3.6098,3.6113,3.6139,3.6166,3.6179,3.6211,3.6249,3.6268,3.6278,3.6297,3.6291,3.629,3.6288,3.6283,3.635,3.6283,3.6283,3.6283,3.6284,3.6284,0,3.5884,3.5909,3.5924,3.5956,3.5969,3.6003,3.6031,3.6039,3.605,3.6077,3.6094,3.6113,3.613,3.6169,3.619,3.6191,3.6209,3.6196,3.6197,3.6201,3.6264,3.6266,3.6182,3.6182,3.6182,3.6182,3.6182,3.6182,3.5842,3.5844,3.587,3.5884,3.591,3.5924,3.5937,3.5957,3.5979,3.5998,3.6014,3.6039,3.6072,3.6096,3.6114,3.6125,3.6131,3.6113,3.6129,3.6187,3.6197,3.6206,3.6208,3.6113,3.6113,3.6066,3.6066,3.6065]}]]